This demonstration page uses our WeatherBlox Daily Observations layout. Learn more.

Left ArrowRight Arrow

Hourly Observations for December 1, 2019

Temp ( °F °C ) Dew Point ( °F °C ) Humidity (%) Winds ( mph kmh ) Pressure ( in mb ) Visibility ( mi km ) Precip ( " mm )
12:51 am 00:51 Clear 34 1.1 31 -0.6 89 89 N N/A 30.13 1020 10 16 N/A
1:51 am 01:51 Clear 33 0.6 30 -1.1 89 89 N N/A 30.13 1020 10 16 N/A
2:51 am 02:51 Clear 35 1.7 30 -1.1 82 82 SE 8 13 30.14 1021 10 16 N/A
3:51 am 03:51 Clear 37 2.8 30 -1.1 76 76 ESE 10 17 30.13 1020 10 16 N/A
4:51 am 04:51 Clear 33 0.6 30 -1.1 89 89 SSE 12 19 30.15 1021 10 16 N/A
5:51 am 05:51 Clear 37 2.8 28 -2.2 70 70 ESE 8 13 30.17 1022 10 16 N/A
6:51 am 06:51 Clear 36 2.2 28 -2.2 73 73 SSE 9 15 30.20 1023 10 16 N/A
7:51 am 07:51 Sunny 39 3.9 28 -2.2 65 65 SE 8 13 30.21 1023 10 16 N/A
8:51 am 08:51 Sunny 43 6.1 28 -2.2 56 56 ESE 12 19 30.23 1024 10 16 N/A
9:51 am 09:51 Sunny 49 9.4 29 -1.7 46 46 E 12 19 30.23 1024 10 16 N/A
10:51 am 10:51 Sunny 51 10.6 29 -1.7 43 43 ESE 10 17 30.22 1024 10 16 N/A
11:51 am 11:51 Sunny 52 11.1 31 -0.6 45 45 ESE 8 13 30.20 1023 10 16 N/A
12:51 pm 12:51 Sunny 54 12.2 33 0.6 45 45 SSE 8 13 30.16 1022 10 16 N/A
1:51 pm 13:51 Sunny 56 13.3 34 1.1 44 44 SSE 7 11 30.14 1021 10 16 N/A
2:51 pm 14:51 Sunny 57 13.9 35 1.7 44 44 S 8 13 30.12 1020 10 16 N/A
3:51 pm 15:51 Sunny 57 13.9 36 2.2 45 45 S 7 11 30.11 1020 10 16 N/A
4:51 pm 16:51 Sunny 56 13.3 36 2.2 47 47 SSW 3 6 30.12 1020 10 16 N/A
5:51 pm 17:51 Clear 49 9.4 39 3.9 69 69 N N/A 30.14 1021 10 16 N/A
6:51 pm 18:51 Clear 46 7.8 40 4.4 79 79 NE 7 11 30.17 1022 10 16 N/A
7:51 pm 19:51 Clear 45 7.2 39 3.9 80 80 ENE 7 11 30.17 1022 10 16 N/A
8:51 pm 20:51 Clear 44 6.7 37 2.8 76 76 ESE 7 11 30.18 1022 10 16 N/A
9:51 pm 21:51 Clear 46 7.8 37 2.8 71 71 E 10 17 30.17 1022 10 16 N/A
10:51 pm 22:51 Clear 50 10 36 2.2 59 59 E 8 13 30.17 1022 10 16 N/A
11:51 pm 23:51 Clear 45 7.2 36 2.2 71 71 ESE 9 15 30.18 1022 10 16 N/A

Powered by AerisWeather